DW6832 Weather Reports


time (UTC)temp
C
wind
direction
speed
KPH
gust
KPH
rain 1hr
cm
rain 24hr
cm
rain mn
cm
humidity
%
barometer
mb
20210916104135 19 157 0.0 6.4 0.00 0.00 0.00 71 1008.9
20210916103635 19 163 0.0 4.8 0.00 0.00 0.00 71 1008.8
20210916103135 19 105 1.6 6.4 0.00 0.00 0.00 71 1009.0
20210916102633 19 159 1.6 6.4 0.00 0.00 0.00 70 1008.8
20210916102133 19 236 1.6 6.4 0.00 0.00 0.00 70 1009.0
20210916101634 19 283 0.0 6.4 0.00 0.00 0.00 69 1009.1
20210916101133 19 243 1.6 11.3 0.00 0.00 0.00 67 1009.1
20210916100631 19 247 0.0 11.3 0.00 0.00 0.00 67 1008.9
20210916100131 19 127 1.6 6.4 0.00 0.00 0.00 67 1008.9
20210916095631 19 65 0.0 6.4 0.00 0.00 0.00 67 1009.0
20210916095131 20 181 0.0 6.4 0.00 0.00 0.00 67 1009.0
20210916094631 20 253 1.6 6.4 0.00 0.00 0.00 67 1009.0
20210916094132 20 56 0.0 8.0 0.00 0.00 0.00 67 1009.0
20210916093631 20 90 0.0 8.0 0.00 0.00 0.00 67 1009.1
20210916093131 20 74 1.6 6.4 0.00 0.00 0.00 67 1009.2
20210916092631 20 74 0.0 6.4 0.00 0.00 0.00 67 1009.2
20210916092131 20 295 0.0 4.8 0.00 0.00 0.00 67 1009.2
20210916091629 20 155 1.6 9.7 0.00 0.00 0.00 67 1009.2
20210916091129 20 58 1.6 9.7 0.00 0.00 0.00 66 1009.2
20210916090629 20 73 1.6 6.4 0.00 0.00 0.00 66 1009.3
20210916090129 20 110 0.0 4.8 0.00 0.00 0.00 66 1009.3
20210916085629 20 73 0.0 4.8 0.00 0.00 0.00 66 1009.3
20210916085129 20 56 0.0 4.8 0.00 0.00 0.00 66 1009.3
20210916084629 20 98 0.0 8.0 0.00 0.00 0.00 66 1009.4
20210916084129 20 155 0.0 8.0 0.00 0.00 0.00 66 1009.4
20210916083629 20 143 1.6 8.0 0.00 0.00 0.00 65 1009.3
20210916083129 20 147 1.6 8.0 0.00 0.00 0.00 65 1009.3
20210916082627 20 150 1.6 8.0 0.00 0.00 0.00 64 1009.4
20210916082127 20 221 1.6 8.0 0.00 0.00 0.00 64 1009.4
20210916081626 20 86 1.6 6.4 0.00 0.00 0.00 64 1009.4
20210916081127 20 167 1.6 11.3 0.00 0.00 0.00 64 1009.4
20210916080626 20 243 1.6 11.3 0.00 0.00 0.00 63 1009.6
20210916080127 20 154 1.6 11.3 0.00 0.00 0.00 63 1009.5
20210916075629 20 80 1.6 6.4 0.00 0.00 0.00 63 1009.6
20210916075127 20 60 1.6 6.4 0.00 0.00 0.00 63 1009.6
20210916074627 20 192 1.6 12.9 0.00 0.00 0.00 63 1009.7
20210916074127 20 3 1.6 12.9 0.00 0.00 0.00 62 1009.8
20210916073625 20 93 1.6 4.8 0.00 0.00 0.00 62 1009.9
20210916073125 20 132 1.6 8.0 0.00 0.00 0.00 62 1010.0
20210916072625 20 140 1.6 8.0 0.00 0.00 0.00 62 1009.9
20210916072126 20 167 1.6 9.7 0.00 0.00 0.00 62 1009.9
20210916071625 20 190 3.2 12.9 0.00 0.00 0.00 62 1010.0
20210916071125 20 210 3.2 12.9 0.00 0.00 0.00 62 1010.0
20210916070625 20 188 1.6 12.9 0.00 0.00 0.00 62 1010.0
20210916070125 20 50 1.6 8.0 0.00 0.00 0.00 61 1010.1
20210916065625 20 94 1.6 6.4 0.00 0.00 0.00 61 1010.1
20210916065125 20 130 1.6 8.0 0.00 0.00 0.00 61 1010.1
20210916064623 20 276 1.6 8.0 0.00 0.00 0.00 61 1010.1
20210916064123 20 14 1.6 6.4 0.00 0.00 0.00 61 1010.0
20210916063623 20 167 1.6 8.0 0.00 0.00 0.00 61 1010.0
20210916063123 20 236 1.6 9.7 0.00 0.00 0.00 61 1010.0
20210916062623 20 136 0.0 9.7 0.00 0.00 0.00 60 1010.0
20210916062123 20 25 1.6 6.4 0.00 0.00 0.00 60 1010.0
20210916061626 20 72 1.6 8.0 0.00 0.00 0.00 60 1010.1
20210916061123 20 224 0.0 8.0 0.00 0.00 0.00 60 1010.1
20210916060623 20 103 1.6 9.7 0.00 0.00 0.00 60 1010.1
20210916060122 20 122 1.6 9.7 0.00 0.00 0.00 59 1010.1
20210916055623 20 197 1.6 8.0 0.00 0.00 0.00 59 1010.2
20210916055123 20 68 1.6 8.0 0.00 0.00 0.00 59 1010.2
20210916054622 20 77 1.6 12.9 0.00 0.00 0.00 59 1010.3
20210916054121 20 206 1.6 12.9 0.00 0.00 0.00 59 1010.4
20210916053621 20 74 1.6 8.0 0.00 0.00 0.00 58 1010.5
20210916053121 20 122 1.6 12.9 0.00 0.00 0.00 58 1010.5
20210916052621 20 251 3.2 12.9 0.00 0.00 0.00 58 1010.5
20210916052119 20 129 3.2 12.9 0.00 0.00 0.00 58 1010.5
20210916051617 20 127 1.6 11.3 0.00 0.00 0.00 58 1010.5
20210916051117 20 68 1.6 8.0 0.00 0.00 0.00 58 1010.4
20210916050616 20 108 3.2 11.3 0.00 0.00 0.00 58 1010.4
20210916050116 20 146 3.2 11.3 0.00 0.00 0.00 58 1010.4
20210916045616 20 131 3.2 9.7 0.00 0.00 0.00 58 1010.5
20210916045117 20 86 1.6 9.7 0.00 0.00 0.00 58 1010.5
20210916044616 20 92 1.6 6.4 0.00 0.00 0.00 58 1010.6
20210916044117 20 117 1.6 6.4 0.00 0.00 0.00 57 1010.8
20210916043616 20 98 1.6 8.0 0.00 0.00 0.00 57 1010.8
20210916043116 20 96 1.6 8.0 0.00 0.00 0.00 57 1010.8
20210916042617 20 96 1.6 8.0 0.00 0.00 0.00 56 1010.8
20210916042116 20 250 1.6 12.9 0.00 0.00 0.00 56 1010.8
20210916041616 20 155 1.6 12.9 0.00 0.00 0.00 56 1010.8
20210916041117 20 176 1.6 8.0 0.00 0.00 0.00 56 1010.9
20210916040617 20 129 1.6 9.7 0.00 0.00 0.00 55 1010.9
20210916040117 20 25 1.6 9.7 0.00 0.00 0.00 55 1011.0
20210916035617 20 110 1.6 8.0 0.00 0.00 0.00 55 1011.0
20210916035116 20 162 1.6 11.3 0.00 0.00 0.00 54 1011.1
20210916034617 21 204 1.6 11.3 0.00 0.00 0.00 54 1011.1
20210916034116 21 127 1.6 11.3 0.00 0.00 0.00 53 1011.1
20210916033616 21 118 1.6 11.3 0.00 0.00 0.00 53 1011.1
20210916033117 21 84 1.6 11.3 0.00 0.00 0.00 52 1011.0
20210916032617 21 155 3.2 17.7 0.00 0.00 0.00 52 1010.9
20210916032117 21 93 1.6 17.7 0.00 0.00 0.00 52 1010.9
20210916031617 21 86 1.6 9.7 0.00 0.00 0.00 52 1010.9
20210916031117 21 101 3.2 11.3 0.00 0.00 0.00 52 1010.9
20210916030616 21 188 3.2 11.3 0.00 0.00 0.00 51 1010.8
20210916030117 21 157 3.2 9.7 0.00 0.00 0.00 51 1010.8
20210916025616 21 189 3.2 17.7 0.00 0.00 0.00 51 1010.8
20210916025116 21 113 1.6 17.7 0.00 0.00 0.00 51 1010.6
20210916024614 21 140 1.6 9.7 0.00 0.00 0.00 51 1010.6
20210916024112 21 105 3.2 9.7 0.00 0.00 0.00 51 1010.6
20210916023612 21 114 3.2 14.5 0.00 0.00 0.00 51 1010.5
20210916023112 21 154 1.6 14.5 0.00 0.00 0.00 51 1010.5
20210916022612 21 43 3.2 11.3 0.00 0.00 0.00 51 1010.4
20210916022114 21 181 3.2 9.7 0.00 0.00 0.00 52 1010.5
20210916021612 21 143 1.6 9.7 0.00 0.00 0.00 52 1010.5
20210916021113 21 77 3.2 14.5 0.00 0.00 0.00 52 1010.4
20210916020612 20 172 1.6 14.5 0.00 0.00 0.00 52 1010.3
20210916020112 20 135 1.6 8.0 0.00 0.00 0.00 52 1010.3
20210916015612 20 134 1.6 8.0 0.00 0.00 0.00 52 1010.3
20210916015112 21 105 1.6 11.3 0.00 0.00 0.00 51 1010.3
20210916014612 21 147 1.6 11.3 0.00 0.00 0.00 51 1010.3
20210916014113 21 120 1.6 4.8 0.00 0.00 0.00 50 1010.2
20210916013612 21 70 0.0 4.8 0.00 0.00 0.00 50 1010.2
20210916013111 21 96 0.0 6.4 0.00 0.00 0.00 50 1010.3
20210916012610 21 165 0.0 6.4 0.00 0.00 0.00 50 1010.3
20210916012110 21 166 0.0 3.2 0.00 0.00 0.00 49 1010.2
20210916011610 21 94 0.0 1.6 0.00 0.00 0.00 48 1010.2
20210916011107 21 94 0.0 3.2 0.00 0.00 0.00 48 1010.2
20210916010606 21 94 0.0 4.8 0.00 0.00 0.00 48 1010.1
20210916010107 21 94 0.0 4.8 0.00 0.00 0.00 47 1010.1
20210916005606 21 95 0.0 4.8 0.00 0.00 0.00 47 1010.1
20210916005106 21 141 0.0 1.6 0.00 0.00 0.00 47 1010.1
20210916004607 21 141 0.0 4.8 0.00 0.00 0.00 47 1010.0
20210916004108 22 141 0.0 4.8 0.00 0.00 0.00 47 1010.1
20210916003606 22 141 0.0 1.6 0.00 0.00 0.00 46 1010.0
20210916003104 22 141 0.0 3.2 0.00 0.00 0.00 46 1010.0
20210916002605 22 141 0.0 3.2 0.00 0.00 0.00 46 1009.9
20210916002105 22 141 0.0 3.2 0.00 0.00 0.00 45 1009.8
20210916001604 22 101 0.0 3.2 0.00 0.00 0.00 45 1009.9
20210916001104 22 100 0.0 4.8 0.00 0.00 0.00 44 1009.9
20210916000604 23 96 0.0 4.8 0.00 0.00 0.00 44 1009.8
20210916000104 23 81 0.0 3.2 0.00 0.00 0.00 44 1009.8
20210915235604 23 145 0.0 3.2 0.00 0.00 0.00 44 1009.8
20210915235104 23 86 0.0 3.2 0.00 0.00 0.00 44 1009.8
20210915234604 23 82 0.0 6.4 0.00 0.00 0.00 44 1009.8
20210915234102 23 183 0.0 6.4 0.00 0.00 0.00 43 1009.8
20210915233602 23 87 1.6 6.4 0.00 0.00 0.00 43 1009.8
20210915233102 23 162 1.6 8.0 0.00 0.00 0.00 42 1009.9
20210915232602 23 167 1.6 8.0 0.00 0.00 0.00 42 1009.9
20210915232102 23 148 1.6 4.8 0.00 0.00 0.00 42 1010.0
20210915231604 23 95 1.6 6.4 0.00 0.00 0.00 42 1010.0
20210915231102 24 174 1.6 6.4 0.00 0.00 0.00 42 1010.0
20210915230602 24 92 1.6 6.4 0.00 0.00 0.00 42 1010.1
20210915230102 24 119 1.6 12.9 0.00 0.00 0.00 41 1010.2
20210915225602 24 171 1.6 12.9 0.00 0.00 0.00 40 1010.4
20210915225100 24 74 1.6 8.0 0.00 0.00 0.00 40 1010.3
20210915224600 25 84 0.0 8.0 0.00 0.00 0.00 41 1010.3
20210915224100 25 115 0.0 6.4 0.00 0.00 0.00 40 1010.4
20210915223601 25 123 1.6 6.4 0.00 0.00 0.00 39 1010.4
20210915223100 25 82 1.6 6.4 0.00 0.00 0.00 39 1010.4
20210915222600 25 170 0.0 6.4 0.00 0.00 0.00 40 1010.5
20210915222100 25 88 0.0 3.2 0.00 0.00 0.00 40 1010.5
20210915221600 25 87 0.0 3.2 0.00 0.00 0.00 41 1010.5
20210915221059 25 87 0.0 4.8 0.00 0.00 0.00 40 1010.6
20210915220600 25 85 1.6 9.7 0.00 0.00 0.00 40 1010.6
20210915220058 25 127 1.6 9.7 0.00 0.00 0.00 39 1010.9
20210915215558 25 176 0.0 6.4 0.00 0.00 0.00 38 1010.9
20210915215058 25 108 1.6 11.3 0.00 0.00 0.00 37 1011.0
20210915214600 25 219 1.6 11.3 0.00 0.00 0.00 38 1011.0
20210915214058 25 48 1.6 8.0 0.00 0.00 0.00 38 1011.0
20210915213558 25 176 1.6 8.0 0.00 0.00 0.00 37 1011.1
20210915213058 25 287 1.6 8.0 0.00 0.00 0.00 36 1011.2
20210915212558 25 285 1.6 8.0 0.00 0.00 0.00 38 1011.2
20210915212058 25 166 1.6 9.7 0.00 0.00 0.00 38 1011.1
20210915211557 25 86 1.6 9.7 0.00 0.00 0.00 38 1011.2
20210915211056 25 161 1.6 8.0 0.00 0.00 0.00 40 1011.2
20210915210556 24 266 0.0 4.8 0.00 0.00 0.00 40 1011.4
20210915210056 24 128 1.6 9.7 0.00 0.00 0.00 40 1011.4
20210915205556 24 86 1.6 9.7 0.00 0.00 0.00 40 1011.5
20210915205056 24 46 0.0 6.4 0.00 0.00 0.00 41 1011.6
20210915204556 24 63 0.0 4.8 0.00 0.00 0.00 42 1011.6
20210915204055 24 61 1.6 6.4 0.00 0.00 0.00 41 1011.7
20210915203556 24 151 1.6 8.0 0.00 0.00 0.00 38 1011.8
20210915203056 25 198 1.6 8.0 0.00 0.00 0.00 38 1011.9
20210915202554 25 127 1.6 6.4 0.00 0.00 0.00 39 1011.9
20210915202053 25 91 1.6 6.4 0.00 0.00 0.00 38 1012.0
20210915201553 25 209 1.6 11.3 0.00 0.00 0.00 39 1012.1
20210915201053 25 133 1.6 11.3 0.00 0.00 0.00 38 1012.2
20210915200554 25 118 1.6 8.0 0.00 0.00 0.00 38 1012.3
20210915200054 25 261 1.6 6.4 0.00 0.00 0.00 39 1012.3
20210915195554 25 140 1.6 6.4 0.00 0.00 0.00 39 1012.3
20210915194554 25 267 1.6 4.8 0.00 0.00 0.00 39 1012.5
20210915194054 25 267 1.6 6.4 0.00 0.00 0.00 39 1012.6
20210915193554 25 265 3.2 9.7 0.00 0.00 0.00 39 1012.6
20210915193053 25 275 1.6 9.7 0.00 0.00 0.00 39 1012.6
20210915192554 25 215 1.6 8.0 0.00 0.00 0.00 41 1012.7
20210915192054 25 253 1.6 6.4 0.00 0.00 0.00 40 1012.7
20210915191553 25 210 1.6 8.0 0.00 0.00 0.00 40 1012.7
20210915191054 24 162 1.6 8.0 0.00 0.00 0.00 40 1012.8
20210915190554 24 278 1.6 4.8 0.00 0.00 0.00 42 1013.0
20210915190051 24 264 3.2 8.0 0.00 0.00 0.00 41 1013.0
20210915185552 24 264 3.2 8.0 0.00 0.00 0.00 40 1013.1
20210915185050 24 268 3.2 6.4 0.00 0.00 0.00 40 1013.2
20210915184550 24 269 3.2 9.7 0.00 0.00 0.00 43 1013.2
20210915184049 24 271 3.2 9.7 0.00 0.00 0.00 43 1013.2
20210915183550 24 262 3.2 9.7 0.00 0.00 0.00 45 1013.3
20210915183050 24 79 1.6 9.7 0.00 0.00 0.00 45 1013.4
20210915182549 23 249 1.6 8.0 0.00 0.00 0.00 46 1013.5
20210915182050 23 258 1.6 9.7 0.00 0.00 0.00 46 1013.5
20210915181550 23 271 1.6 9.7 0.00 0.00 0.00 47 1013.5
20210915181049 23 266 1.6 8.0 0.00 0.00 0.00 46 1013.5
20210915180550 23 153 1.6 6.4 0.00 0.00 0.00 52 1013.5
20210915180050 23 138 1.6 6.4 0.00 0.00 0.00 52 1013.6
20210915175549 23 153 3.2 6.4 0.00 0.00 0.00 51 1013.6
20210915175047 23 268 1.6 6.4 0.00 0.00 0.00 52 1013.7
20210915174548 23 268 1.6 6.4 0.00 0.00 0.00 52 1013.7
20210915174048 23 301 1.6 6.4 0.00 0.00 0.00 55 1013.8
20210915173547 22 238 1.6 4.8 0.00 0.00 0.00 56 1013.8
20210915173047 22 238 1.6 4.8 0.00 0.00 0.00 56 1013.9
20210915172547 22 239 1.6 6.4 0.00 0.00 0.00 56 1014.0
20210915172050 22 239 1.6 6.4 0.00 0.00 0.00 55 1014.0
20210915171546 22 200 1.6 4.8 0.00 0.00 0.00 55 1014.0
20210915171045 22 220 1.6 4.8 0.00 0.00 0.00 57 1014.0
20210915170545 22 220 1.6 4.8 0.00 0.00 0.00 56 1014.0
20210915170044 21 220 1.6 4.8 0.00 0.00 0.00 58 1014.1
20210915165544 21 150 1.6 4.8 0.00 0.00 0.00 60 1014.1
20210915165042 21 150 1.6 6.4 0.00 0.00 0.00 58 1014.1
20210915164541 21 224 1.6 6.4 0.00 0.00 0.00 59 1014.1
20210915164042 21 92 1.6 4.8 0.00 0.00 0.00 59 1014.1
20210915163541 20 92 1.6 4.8 0.00 0.00 0.00 59 1014.1
20210915163042 20 91 1.6 4.8 0.00 0.00 0.00 61 1014.1
20210915162541 20 91 1.6 4.8 0.00 0.00 0.00 61 1014.3
20210915162042 20 110 1.6 4.8 0.00 0.00 0.00 63 1014.3
20210915161541 20 110 1.6 4.8 0.00 0.00 0.00 63 1014.5
20210915161041 19 242 1.6 4.8 0.00 0.00 0.00 65 1014.5
20210915160542 19 257 1.6 4.8 0.00 0.00 0.00 65 1014.6
20210915160041 18 257 1.6 4.8 0.00 0.00 0.00 64 1014.6
20210915155541 18 257 1.6 4.8 0.00 0.00 0.00 65 1014.6
20210915155042 18 257 1.6 4.8 0.00 0.00 0.00 65 1014.6
20210915154541 18 257 1.6 6.4 0.00 0.00 0.00 66 1014.6
20210915154041 18 257 1.6 6.4 0.00 0.00 0.00 67 1014.7
20210915153541 17 257 1.6 8.0 0.00 0.00 0.00 66 1014.7
20210915153042 17 257 1.6 8.0 0.00 0.00 0.00 69 1014.6
20210915152542 17 257 1.6 6.4 0.00 0.00 0.00 70 1014.7
20210915152041 17 257 3.2 6.4 0.00 0.00 0.00 70 1014.6
20210915151541 17 257 3.2 6.4 0.00 0.00 0.00 71 1014.6
20210915151042 17 196 1.6 6.4 0.00 0.00 0.00 72 1014.5
20210915150542 16 193 1.6 4.8 0.00 0.00 0.00 73 1014.3
20210915150042 16 193 1.6 4.8 0.00 0.00 0.00 74 1014.3
20210915145542 16 193 1.6 6.4 0.00 0.00 0.00 75 1014.3
20210915145041 16 193 1.6 6.4 0.00 0.00 0.00 75 1014.3
20210915144541 15 190 1.6 4.8 0.00 0.00 0.00 76 1014.2
20210915144042 15 190 1.6 4.8 0.00 0.00 0.00 76 1014.3
20210915143540 15 190 1.6 4.8 0.00 0.00 0.00 78 1014.2
20210915143040 15 190 1.6 4.8 0.00 0.00 0.00 79 1014.2
20210915142539 15 190 1.6 4.8 0.00 0.00 0.00 80 1014.1
20210915142040 14 190 0.0 4.8 0.00 0.00 0.00 81 1014.1
20210915141539 14 190 0.0 1.6 0.00 0.00 0.00 83 1014.0
20210915141039 13 190 0.0 3.2 0.00 0.00 0.00 83 1014.1
20210915140538 13 190 0.0 4.8 0.00 0.00 0.00 84 1014.0
20210915140037 13 190 0.0 4.8 0.00 0.00 0.00 85 1014.0
20210915135537 13 190 0.0 4.8 0.00 0.00 0.00 86 1014.0
20210915135035 13 127 0.0 3.2 0.00 0.00 0.00 86 1014.0
20210915134535 12 124 0.0 3.2 0.00 0.00 0.00 88 1014.0
20210915134036 12 124 0.0 3.2 0.00 0.00 0.00 88 1014.0
20210915133533 12 124 0.0 3.2 0.00 0.00 0.00 89 1014.0
20210915133033 12 124 0.0 3.2 0.00 0.00 0.00 89 1014.0
20210915132533 11 124 0.0 1.6 0.00 0.00 0.00 90 1013.9
20210915132034 11 124 0.0 1.6 0.00 0.00 0.00 90 1013.9
20210915131532 11 124 0.0 1.6 0.00 0.00 0.00 90 1013.9
20210915131031 11 124 0.0 1.6 0.00 0.00 0.00 90 1013.9
20210915130531 11 259 0.0 1.6 0.00 0.00 0.00 91 1013.9
20210915130034 11 259 0.0 1.6 0.00 0.00 0.00 90 1013.9
20210915125531 11 259 0.0 1.6 0.00 0.00 0.00 91 1013.9
20210915125030 11 259 0.0 1.6 0.00 0.00 0.00 91 1014.0
20210915124529 10 259 0.0 0.0 0.00 0.00 0.00 91 1013.8
20210915124030 10 259 0.0 0.0 0.00 0.00 0.00 91 1013.9
20210915123529 10 259 0.0 0.0 0.00 0.00 0.00 91 1013.8
20210915123029 10 259 0.0 1.6 0.00 0.00 0.00 91 1013.7
20210915122528 10 259 0.0 1.6 0.00 0.00 0.00 91 1013.6
20210915122027 10 259 0.0 1.6 0.00 0.00 0.00 91 1013.6
20210915121527 10 259 0.0 1.6 0.00 0.00 0.00 91 1013.6
20210915121027 10 259 0.0 0.0 0.00 0.00 0.00 91 1013.6
20210915120527 10 259 0.0 3.2 0.00 0.00 0.00 91 1013.6
20210915120027 10 259 0.0 3.2 0.00 0.00 0.00 92 1013.5
20210915115527 10 259 0.0 0.0 0.00 0.00 0.00 92 1013.5
20210915115027 10 259 0.0 0.0 0.00 0.00 0.00 92 1013.6
20210915114527 10 259 0.0 0.0 0.00 0.00 0.00 92 1013.4
20210915114027 10 259 0.0 0.0 0.00 0.00 0.00 92 1013.3
20210915113528 10 259 0.0 0.0 0.00 0.00 0.00 92 1013.3
20210915113025 10 259 0.0 0.0 0.00 0.00 0.00 92 1013.4
20210915112525 10 259 0.0 0.0 0.00 0.00 0.00 92 1013.4
20210915112025 10 259 0.0 0.0 0.00 0.00 0.00 92 1013.3
20210915111525 10 259 0.0 0.0 0.00 0.00 0.00 92 1013.3
20210915111025 10 259 0.0 0.0 0.00 0.00 0.00 92 1013.2
20210915110526 10 259 0.0 0.0 0.00 0.00 0.00 92 1013.3
20210915110026 10 259 0.0 0.0 0.00 0.00 0.00 92 1013.2
20210915105525 10 259 0.0 0.0 0.00 0.00 0.00 92 1013.2
20210915105025 11 259 0.0 0.0 0.00 0.00 0.00 92 1013.2
20210915104525 11 259 0.0 0.0 0.00 0.00 0.00 91 1013.1